Date,TemperatureHighF,TemperatureAvgF,TemperatureLowF,DewpointHighF,DewpointAvgF,DewpointLowF,HumidityHigh,HumidityAvg,HumidityLow,PressureMaxIn,PressureMinIn,WindSpeedMaxMPH,WindSpeedAvgMPH,GustSpeedMaxMPH,PrecipitationSumIn
2013-6-12,92.0,87.6,82.0,73.0,71.4,69.0,74,59,51,0.00,40.00,11,7,22,0.00
2013-6-13,85.0,78.9,67.0,72.0,63.7,51.0,87,61,40,0.00,40.00,16,9,29,0.00
2013-6-14,85.0,70.2,56.0,63.0,56.7,53.0,94,66,39,0.00,40.00,7,2,12,0.00
2013-6-15,83.0,67.7,60.0,62.0,59.5,58.0,96,79,43,0.00,40.00,4,1,7,0.00
2013-6-16,81.0,73.9,69.0,71.0,66.2,62.0,95,78,58,0.00,40.00,7,3,14,0.00
2013-6-17,91.0,76.0,67.0,71.0,66.6,64.0,95,76,43,0.00,40.00,10,2,32,0.00
2013-6-18,89.0,71.8,63.0,66.0,64.0,61.0,95,80,43,0.00,40.00,4,2,11,0.00
2013-6-19,85.0,72.0,63.0,66.0,60.9,58.0,95,72,41,0.00,40.00,7,2,11,0.00
2013-6-20,90.0,72.2,61.0,65.0,61.0,56.0,95,74,32,0.00,40.00,4,2,11,0.00
2013-6-22,84.0,84.0,84.0,70.0,70.0,70.0,62,62,62,0.00,40.00,3,3,7,0.00
2013-6-25,91.0,86.1,80.0,74.0,72.4,71.0,80,64,52,0.00,40.00,9,5,19,0.00
2013-6-26,84.0,71.6,67.0,73.0,68.0,65.0,96,90,68,0.00,40.00,9,4,19,0.00
2013-6-27,90.0,77.3,68.0,74.0,70.5,67.0,95,81,53,0.00,40.00,7,4,15,0.00
2013-6-28,88.0,78.2,67.0,72.0,65.0,58.0,93,67,41,0.00,40.00,12,6,22,0.00
2013-6-29,81.0,70.0,63.0,69.0,65.0,61.0,95,86,57,0.00,40.00,6,2,11,0.00
2013-6-30,78.0,70.7,66.0,67.0,65.4,63.0,95,85,63,0.00,40.00,9,3,16,0.00
2013-7-1,76.0,69.1,64.0,69.0,65.2,62.0,95,87,72,0.00,40.00,9,5,15,0.00
2013-7-10,85.0,79.4,72.0,71.0,68.9,67.0,94,72,56,0.00,40.00,9,2,19,0.00
2013-7-11,82.0,74.1,66.0,71.0,62.2,56.0,95,69,47,0.00,40.00,12,5,19,0.00
2013-7-12,83.0,70.5,58.0,61.0,57.4,54.0,95,67,39,0.00,40.00,10,4,16,0.00
2013-7-13,83.0,72.7,60.0,72.0,63.0,59.0,95,74,47,0.00,40.00,10,3,16,0.00
2013-7-14,93.0,78.7,64.0,74.0,68.0,63.0,95,73,45,0.00,40.00,7,2,14,0.00
2013-7-15,92.0,79.8,70.0,74.0,70.2,67.0,95,76,43,0.00,40.00,7,2,14,0.00
2013-7-16,96.0,82.2,69.0,76.0,71.2,68.0,95,73,42,0.00,40.00,4,1,8,0.00
2013-7-17,95.0,83.0,73.0,77.0,73.5,71.0,95,76,47,0.00,40.00,7,2,12,0.00
2013-7-18,97.0,84.9,74.0,76.0,72.8,69.0,95,72,40,0.00,40.00,6,1,8,0.00
2013-7-19,92.0,83.1,74.0,75.0,72.4,70.0,95,73,51,0.00,40.00,12,5,17,0.00
2013-7-20,89.0,77.2,70.0,73.0,69.4,-99.9,95,80,57,0.00,40.00,12,6,30,0.00
2013-7-21,89.0,77.8,68.0,73.0,68.4,65.0,95,76,49,0.00,40.00,4,1,7,0.00
2013-7-22,85.0,75.5,70.0,73.0,70.5,69.0,95,86,63,0.00,40.00,7,3,14,0.00
2013-7-23,87.0,77.1,68.0,75.0,70.8,66.0,95,82,59,0.00,40.00,8,3,16,0.00
2013-7-24,80.0,70.1,60.0,66.0,58.8,56.0,91,69,48,0.00,40.00,8,4,14,0.00
2013-7-25,80.0,67.9,57.0,61.0,55.8,53.0,95,70,41,0.00,40.00,8,3,16,0.00
2013-7-26,81.0,68.8,56.0,66.0,59.0,55.0,96,75,43,0.00,40.00,5,2,12,0.00
2013-7-27,79.0,70.4,62.0,66.0,60.9,55.0,95,75,44,0.00,40.00,13,6,18,0.00
2013-7-28,74.0,64.8,51.0,58.0,50.9,48.0,95,64,40,0.00,40.00,11,4,16,0.00
2013-7-29,82.0,67.4,53.0,61.0,55.3,52.0,96,70,38,0.00,40.00,6,-49,13,0.00
2013-7-30,81.0,67.8,59.0,68.0,61.0,58.0,95,82,46,0.00,40.00,6,2,9,0.00
2013-7-31,78.0,70.9,65.0,69.0,66.3,63.0,95,86,71,0.00,40.00,9,4,14,0.00
2013-8-1,85.0,73.6,64.0,68.0,62.6,56.0,95,73,40,0.00,40.00,7,3,17,0.00
2013-8-2,82.0,71.6,58.0,67.0,61.3,56.0,95,73,47,0.00,40.00,12,3,17,0.00
2013-8-3,87.0,76.5,69.0,71.0,67.2,64.0,94,74,54,0.00,40.00,8,3,12,0.00
2013-8-4,81.0,69.9,58.0,64.0,56.3,51.0,94,67,36,0.00,40.00,7,3,16,0.00
2013-8-5,84.0,69.2,54.0,64.0,56.1,53.0,96,69,34,0.00,40.00,7,2,12,0.00
2013-8-6,86.0,74.9,63.0,72.0,66.5,61.0,94,77,60,0.00,40.00,4,2,9,0.00
2013-8-7,86.0,77.2,69.0,74.0,71.1,68.0,95,82,62,0.00,40.00,6,2,11,0.00
2013-8-8,92.0,79.5,72.0,74.0,71.3,69.0,95,78,48,0.00,40.00,7,3,13,0.00
2013-8-9,86.0,77.5,72.0,74.0,71.4,69.0,95,83,59,0.00,40.00,6,2,11,0.00
2013-8-10,74.0,72.7,71.0,72.0,70.7,69.0,94,94,94,0.00,40.00,1,0,3,0.00